Weather History for YSSY - July, 2013

Change the Weather History Date:

Sunday, July 21, 2013

  Actual Average Record
Temperature  
Mean Temperature 55 °F -  
Max Temperature 62 °F 64 °F 66 °F (1998)
Min Temperature 48 °F 45 °F 41 °F (1997)
Degree Days  
Heating Degree Days 10    
Growing Degree Days 5 (Base 50)    
Moisture  
Dew Point 25 °F    
Average Humidity 31    
Maximum Humidity 46    
Minimum Humidity 9    
Precipitation  
Precipitation 0.00 in 0.10 in - ()
Sea Level Pressure  
Sea Level Pressure 29.95 in    
Wind  
Wind Speed 14 mph ()    
Max Wind Speed 23 mph    
Max Gust Speed 33 mph    
Visibility 10.5 miles    
Events      
Averages and records for this station are not official NWS values.
T = Trace of Precipitation, MM = Missing Value Source: Averaged Metar Reports

Daily Weather History Graph

Daily Weather History Graph

Search for Another Location

Airport or City:

Trip Planner

Search our weather history database for the weather conditions in past years. The results will help you decide how hot, cold, wet, or windy it might be!

Date:

Astronomy

Jul. 21, 2013 Rise Set
Actual Time 6:55 AM AEST 5:08 PM AEST
Civil Twilight 6:28 AM AEST 5:35 PM AEST
Nautical Twilight 5:58 AM AEST 6:05 PM AEST
Astronomical Twilight 5:28 AM AEST 6:35 PM AEST
Moon 3:34 PM AEST (7/21) 4:56 AM AEST (7/21)
Length of Visible Light 11h 06m
Length of Day
10h 12m
Waxing Gibbous, 96% of the Moon is Illuminated
Jul 21
Waxing Gibbous
Jul 23
Full
Jul 30
Last Quarter
Aug 7
New
Aug 14
First Quarter

Hourly Weather History & Observations

Time (AEST) Temp. Dew Point Humidity Pressure Visibility Wind Dir Wind Speed Gust Speed Precip Events Conditions
12:00 AM 53 °F 30 °F 29% 29.89 in 25 mi WNW 16.1 mph - -   Partly Cloudy
12:00 AM 53.6 °F 30.2 °F 41% 29.89 in - WNW 16.1 mph - N/A   Clear
12:30 AM 51.8 °F 30.2 °F 44% 29.89 in - WNW 13.8 mph - N/A   Clear
1:00 AM 52 °F 29 °F 29% 29.90 in - NW 12.7 mph - -  
1:00 AM 51.8 °F 28.4 °F 41% 29.89 in - NW 12.7 mph - N/A   Clear
1:30 AM 51.8 °F 26.6 °F 38% 29.89 in - WNW 20.7 mph - N/A   Unknown
2:00 AM 51.8 °F 30.2 °F 44% 29.89 in - NW 16.1 mph - N/A   Clear
2:30 AM 50.0 °F 28.4 °F 43% 29.89 in - NNW 12.7 mph - N/A   Clear
3:00 AM 50 °F 28 °F 30% 29.91 in 25 mi NNW 12.7 mph - -   Partly Cloudy
3:00 AM 50.0 °F 28.4 °F 43% 29.89 in - NNW 12.7 mph - N/A   Clear
3:30 AM 50.0 °F 28.4 °F 43% 29.92 in - NNW 9.2 mph - N/A   Clear
4:00 AM 50 °F 28 °F 30% 29.93 in - NNW 9.2 mph - -  
4:00 AM 50.0 °F 28.4 °F 43% 29.92 in - NNW 9.2 mph - N/A   Clear
4:30 AM 48.2 °F 28.4 °F 46% 29.92 in - NNW 5.8 mph - N/A   Clear
5:00 AM 48.2 °F 28.4 °F 46% 29.92 in - North 6.9 mph - N/A   Clear
5:30 AM 50.0 °F 28.4 °F 43% 29.92 in - North 9.2 mph - N/A   Clear
6:00 AM 48 °F 29 °F 34% 29.95 in 25 mi North 11.5 mph - -   Partly Cloudy
6:00 AM 48.2 °F 28.4 °F 46% 29.95 in - North 11.5 mph - N/A   Clear
6:30 AM 48.2 °F 28.4 °F 46% 29.95 in - NNW 11.5 mph - N/A   Clear
7:00 AM 49 °F 29 °F 32% 29.98 in - NNW 12.7 mph - -  
7:00 AM 50.0 °F 28.4 °F 43% 29.95 in 6.2 mi NNW 12.7 mph - N/A   Partly Cloudy
7:30 AM 50.0 °F 28.4 °F 43% 29.98 in 6.2 mi NW 11.5 mph - N/A   Partly Cloudy
8:00 AM 50.0 °F 28.4 °F 43% 29.98 in - NW 11.5 mph - N/A   Clear
8:30 AM 51.8 °F 28.4 °F 41% 29.98 in - NW 13.8 mph - N/A   Clear
9:00 AM 53 °F 27 °F 24% 30.00 in 25 mi NW 17.3 mph - -   Partly Cloudy
9:00 AM 53.6 °F 26.6 °F 35% 29.98 in - NW 17.3 mph - N/A   Clear
9:30 AM 55.4 °F 26.6 °F 33% 29.98 in - NW 19.6 mph - N/A   Clear
10:00 AM 55 °F 25 °F 19% 30.00 in - NW 19.6 mph - -  
10:00 AM 55.4 °F 24.8 °F 31% 29.98 in - NW 19.6 mph - N/A   Clear
10:30 AM 55.4 °F 26.6 °F 33% 29.98 in - NNW 19.6 mph - N/A   Clear
11:00 AM 57.2 °F 24.8 °F 29% 29.98 in - NW 19.6 mph - N/A   Clear
11:30 AM 59.0 °F 24.8 °F 27% 29.95 in - NW 19.6 mph - N/A   Clear
12:00 PM 60.8 °F 21.2 °F 22% 29.95 in - NW 19.6 mph - N/A   Clear
12:30 PM 60.8 °F 21.2 °F 22% 29.92 in - WNW 23.0 mph - N/A   Clear
12:44 PM 60.8 °F 19.4 °F 20% 29.92 in - WNW 20.7 mph 32.2 mph N/A   Clear
1:00 PM 60 °F 20 °F 11% 29.93 in - WNW 19.6 mph - -  
1:00 PM 60.8 °F 19.4 °F 20% 29.92 in - WNW 19.6 mph - N/A   Clear
1:30 PM 62.6 °F 21.2 °F 20% 29.92 in - NW 20.7 mph - N/A   Clear
2:00 PM 60.8 °F 17.6 °F 19% 29.92 in - WNW 21.9 mph 33.4 mph N/A   Clear
2:30 PM 60.8 °F 17.6 °F 19% 29.92 in - West 20.7 mph - N/A   Clear
2:50 PM 60.8 °F 17.6 °F 19% 29.92 in - NW 23.0 mph - N/A   Clear
3:00 PM 62 °F 18 °F 9% 29.92 in 19 mi WNW 21.9 mph - -   Partly Cloudy
3:00 PM 62.6 °F 17.6 °F 18% 29.92 in - WNW 21.9 mph - N/A   Clear
3:30 PM 60.8 °F 19.4 °F 20% 29.92 in - WNW 19.6 mph - N/A   Clear
4:00 PM 61 °F 20 °F 11% 29.94 in - WNW 21.9 mph - -  
4:00 PM 60.8 °F 19.4 °F 20% 29.92 in - WNW 21.9 mph - N/A   Clear
4:30 PM 60.8 °F 19.4 °F 20% 29.92 in - WNW 17.3 mph - N/A   Clear
5:00 PM 59.0 °F 21.2 °F 23% 29.95 in - NW 18.4 mph - N/A   Clear
5:30 PM 57.2 °F 21.2 °F 25% 29.95 in - NW 19.6 mph - N/A   Clear
6:00 PM 59.0 °F 21.2 °F 23% 29.95 in - NW 17.3 mph - N/A   Clear
6:30 PM 57.2 °F 23.0 °F 27% 29.98 in - NW 13.8 mph - N/A   Clear
7:00 PM 56 °F 20 °F 13% 29.99 in - NW 18.4 mph - -  
7:00 PM 55.4 °F 19.4 °F 25% 29.98 in - NW 18.4 mph - N/A   Clear
7:30 PM 57.2 °F 21.2 °F 25% 30.01 in - NW 13.8 mph - N/A   Clear
8:00 PM 57.2 °F 23.0 °F 27% 30.01 in - NW 9.2 mph - N/A   Clear
8:30 PM 55.4 °F 24.8 °F 31% 30.04 in - NW 8.1 mph - N/A   Clear
9:00 PM 54 °F 26 °F 21% 30.04 in 25 mi NNW 5.8 mph - -   Partly Cloudy
9:00 PM 53.6 °F 24.8 °F 33% 30.04 in - NNW 5.8 mph - N/A   Clear
9:30 PM 53.6 °F 26.6 °F 35% 30.04 in - NNW 9.2 mph - N/A   Clear
10:00 PM 53.6 °F 26.6 °F 35% 30.04 in - North 10.4 mph - N/A   Clear
10:30 PM 51.8 °F 28.4 °F 41% 30.04 in - North 9.2 mph - N/A   Clear
11:00 PM 51.8 °F 28.4 °F 41% 30.04 in - North 8.1 mph - N/A   Clear
11:30 PM 51.8 °F 28.4 °F 41% 30.04 in - North 8.1 mph - N/A   Clear